Wetterdaten: Woche 07.01.13 - 13.01.13 (KW2)
Datum Zeit Temp. Aussen +5cm Feuchte Auss BlattFeu 1 Luftdruck Regen Sonnenschein T Regendauer UV Solar Windben
07.01.2013 00:00 8,1 C 6,8 C 98 % 0 lf 1029,8 hPa 0,0 l/m 0,00 h 0,00 h 0,0 UV-I 0 W/m 2,1 km/h (1 Bft)
07.01.2013 01:00 7,9 C 6,8 C 98 % 0 lf 1029,4 hPa 0,0 l/m 0,00 h 0,00 h 0,0 UV-I 0 W/m 0,5 km/h (0 Bft)
07.01.2013 02:00 8,0 C 6,8 C 99 % 0 lf 1029,2 hPa 0,0 l/m 0,00 h 0,00 h 0,0 UV-I 0 W/m 1,2 km/h (1 Bft)
07.01.2013 03:00 8,0 C 6,8 C 99 % 0 lf 1029,2 hPa 0,0 l/m 0,00 h 0,00 h 0,0 UV-I 0 W/m 0,4 km/h (0 Bft)
07.01.2013 04:00 8,1 C 6,8 C 99 % 0 lf 1029,1 hPa 0,0 l/m 0,00 h 0,00 h 0,0 UV-I 0 W/m 0,8 km/h (0 Bft)
07.01.2013 05:00 8,0 C 6,8 C 99 % 0 lf 1029,0 hPa 0,0 l/m 0,00 h 0,00 h 0,0 UV-I 0 W/m 0,4 km/h (0 Bft)
07.01.2013 06:00 7,9 C 6,8 C 99 % 0 lf 1028,7 hPa 0,0 l/m 0,00 h 0,00 h 0,0 UV-I 0 W/m 1,5 km/h (1 Bft)
07.01.2013 07:00 7,8 C 6,8 C 99 % 0 lf 1028,6 hPa 0,0 l/m 0,00 h 0,00 h 0,0 UV-I 0 W/m 0,0 km/h (0 Bft)
07.01.2013 08:00 7,7 C 6,8 C 99 % 0 lf 1028,5 hPa 0,0 l/m 0,00 h 0,00 h 0,0 UV-I 0 W/m 0,5 km/h (0 Bft)
07.01.2013 09:00 7,7 C 6,8 C 99 % 0 lf 1028,4 hPa 0,0 l/m 0,00 h 0,00 h 0,0 UV-I 12 W/m 2,1 km/h (1 Bft)
07.01.2013 10:00 8,0 C 7,2 C 98 % 0 lf 1028,6 hPa 0,0 l/m 0,00 h 0,00 h 0,0 UV-I 33 W/m 0,7 km/h (0 Bft)
07.01.2013 11:00 8,3 C 7,9 C 98 % 0 lf 1028,5 hPa 0,0 l/m 0,00 h 0,00 h 0,0 UV-I 60 W/m 2,2 km/h (1 Bft)
07.01.2013 12:00 8,7 C 8,0 C 96 % 0 lf 1028,1 hPa 0,0 l/m 0,00 h 0,00 h 0,0 UV-I 42 W/m 1,0 km/h (0 Bft)
07.01.2013 13:00 8,7 C 7,9 C 94 % 0 lf 1027,7 hPa 0,0 l/m 0,00 h 0,00 h 0,0 UV-I 29 W/m 3,7 km/h (1 Bft)
07.01.2013 14:00 8,6 C 7,8 C 91 % 0 lf 1027,5 hPa 0,0 l/m 0,00 h 0,00 h 0,0 UV-I 31 W/m 2,3 km/h (1 Bft)
07.01.2013 15:00 8,6 C 7,3 C 89 % 0 lf 1027,3 hPa 0,0 l/m 0,00 h 0,00 h 0,0 UV-I 11 W/m 1,8 km/h (1 Bft)
07.01.2013 16:00 8,4 C 7,1 C 89 % 0 lf 1026,9 hPa 0,0 l/m 0,00 h 0,00 h 0,0 UV-I 6 W/m 0,3 km/h (0 Bft)
07.01.2013 17:00 8,3 C 6,8 C 90 % 0 lf 1026,6 hPa 0,0 l/m 0,00 h 0,00 h 0,0 UV-I 0 W/m 0,9 km/h (0 Bft)
07.01.2013 18:00 8,2 C 6,8 C 89 % 0 lf 1026,6 hPa 0,0 l/m 0,00 h 0,00 h 0,0 UV-I 0 W/m 2,8 km/h (1 Bft)
07.01.2013 19:00 7,9 C 6,5 C 90 % 0 lf 1026,8 hPa 0,0 l/m 0,00 h 0,00 h 0,0 UV-I 0 W/m 2,7 km/h (1 Bft)
07.01.2013 20:00 7,6 C 6,2 C 90 % 0 lf 1026,6 hPa 0,0 l/m 0,00 h 0,00 h 0,0 UV-I 0 W/m 1,3 km/h (1 Bft)
07.01.2013 21:00 7,4 C 6,2 C 92 % 0 lf 1026,6 hPa 0,0 l/m 0,00 h 0,00 h 0,0 UV-I 0 W/m 0,0 km/h (0 Bft)
07.01.2013 22:00 7,2 C 6,1 C 92 % 0 lf 1026,5 hPa 0,0 l/m 0,00 h 0,00 h 0,0 UV-I 0 W/m 1,6 km/h (1 Bft)
07.01.2013 23:00 6,9 C 5,7 C 92 % 0 lf 1026,4 hPa 0,0 l/m 0,00 h 0,00 h 0,0 UV-I 0 W/m 4,2 km/h (1 Bft)
08.01.2013 00:00 6,7 C 5,7 C 92 % 0 lf 1026,2 hPa 0,0 l/m 0,00 h 0,00 h 0,0 UV-I 0 W/m 3,4 km/h (1 Bft)
08.01.2013 01:00 6,4 C 5,3 C 93 % 0 lf 1025,7 hPa 0,0 l/m 0,00 h 0,00 h 0,0 UV-I 0 W/m 7,5 km/h (2 Bft)
08.01.2013 02:00 6,3 C 5,1 C 93 % 0 lf 1025,7 hPa 0,0 l/m 0,00 h 0,00 h 0,0 UV-I 0 W/m 5,5 km/h (1 Bft)
08.01.2013 03:00 5,9 C 4,8 C 95 % 0 lf 1025,8 hPa 0,0 l/m 0,00 h 0,00 h 0,0 UV-I 0 W/m 6,9 km/h (2 Bft)
08.01.2013 04:00 5,5 C 4,5 C 95 % 4 lf 1025,5 hPa 0,0 l/m 0,00 h 0,13 h 0,0 UV-I 0 W/m 8,0 km/h (2 Bft)
08.01.2013 05:00 5,3 C 4,0 C 97 % 15 lf 1025,3 hPa 0,0 l/m 0,00 h 1,00 h 0,0 UV-I 0 W/m 3,6 km/h (1 Bft)
08.01.2013 06:00 5,2 C 4,0 C 98 % 15 lf 1025,3 hPa 0,0 l/m 0,00 h 1,00 h 0,0 UV-I 0 W/m 2,7 km/h (1 Bft)
08.01.2013 07:00 5,2 C 4,0 C 99 % 15 lf 1025,3 hPa 0,0 l/m 0,00 h 1,00 h 0,0 UV-I 0 W/m 1,7 km/h (1 Bft)
08.01.2013 08:00 5,3 C 4,1 C 99 % 15 lf 1025,4 hPa 0,0 l/m 0,00 h 1,00 h 0,0 UV-I 5 W/m 1,6 km/h (1 Bft)
08.01.2013 09:00 5,5 C 4,6 C 99 % 15 lf 1025,5 hPa 0,0 l/m 0,00 h 1,00 h 0,0 UV-I 9 W/m 2,6 km/h (1 Bft)
08.01.2013 10:00 5,9 C 5,3 C 99 % 1 lf 1025,6 hPa 0,0 l/m 0,00 h 0,03 h 0,0 UV-I 44 W/m 3,8 km/h (1 Bft)
08.01.2013 11:00 6,6 C 6,2 C 97 % 0 lf 1025,5 hPa 0,0 l/m 0,00 h 0,00 h 0,0 UV-I 74 W/m 8,4 km/h (2 Bft)
08.01.2013 12:00 7,1 C 6,2 C 94 % 0 lf 1025,3 hPa 0,0 l/m 0,00 h 0,00 h 0,0 UV-I 56 W/m 8,4 km/h (2 Bft)
08.01.2013 13:00 7,2 C 6,3 C 93 % 0 lf 1025,0 hPa 0,0 l/m 0,00 h 0,00 h 0,0 UV-I 44 W/m 7,4 km/h (2 Bft)
08.01.2013 14:00 7,3 C 6,4 C 92 % 0 lf 1024,8 hPa 0,0 l/m 0,00 h 0,00 h 0,0 UV-I 37 W/m 9,6 km/h (2 Bft)
08.01.2013 15:00 7,2 C 6,2 C 92 % 0 lf 1024,8 hPa 0,0 l/m 0,00 h 0,00 h 0,0 UV-I 13 W/m 6,0 km/h (2 Bft)
08.01.2013 16:00 7,1 C 5,9 C 92 % 0 lf 1024,8 hPa 0,0 l/m 0,00 h 0,00 h 0,0 UV-I 6 W/m 6,3 km/h (2 Bft)
08.01.2013 17:00 7,1 C 5,7 C 92 % 0 lf 1024,8 hPa 0,0 l/m 0,00 h 0,00 h 0,0 UV-I 0 W/m 3,8 km/h (1 Bft)
08.01.2013 18:00 7,0 C 5,7 C 92 % 0 lf 1024,8 hPa 0,0 l/m 0,00 h 0,00 h 0,0 UV-I 0 W/m 7,0 km/h (2 Bft)
08.01.2013 19:00 7,0 C 5,7 C 92 % 0 lf 1024,8 hPa 0,0 l/m 0,00 h 0,00 h 0,0 UV-I 0 W/m 8,9 km/h (2 Bft)
08.01.2013 20:00 7,0 C 5,7 C 92 % 0 lf 1024,9 hPa 0,0 l/m 0,00 h 0,00 h 0,0 UV-I 0 W/m 10,3 km/h (2 Bft)
08.01.2013 21:00 6,9 C 5,7 C 92 % 0 lf 1024,9 hPa 0,0 l/m 0,00 h 0,00 h 0,0 UV-I 0 W/m 9,0 km/h (2 Bft)
08.01.2013 22:00 6,8 C 5,7 C 92 % 0 lf 1024,6 hPa 0,0 l/m 0,00 h 0,00 h 0,0 UV-I 0 W/m 6,7 km/h (2 Bft)
08.01.2013 23:00 6,6 C 5,7 C 91 % 0 lf 1024,4 hPa 0,0 l/m 0,00 h 0,00 h 0,0 UV-I 0 W/m 6,8 km/h (2 Bft)
09.01.2013 00:00 6,4 C 5,2 C 91 % 0 lf 1024,2 hPa 0,0 l/m 0,00 h 0,00 h 0,0 UV-I 0 W/m 8,2 km/h (2 Bft)
09.01.2013 01:00 6,2 C 5,1 C 90 % 0 lf 1023,7 hPa 0,0 l/m 0,00 h 0,00 h 0,0 UV-I 0 W/m 7,7 km/h (2 Bft)
09.01.2013 02:00 6,0 C 5,1 C 91 % 0 lf 1023,4 hPa 0,0 l/m 0,00 h 0,00 h 0,0 UV-I 0 W/m 6,7 km/h (2 Bft)
09.01.2013 03:00 5,9 C 5,1 C 91 % 3 lf 1023,2 hPa 0,2 l/m 0,00 h 0,20 h 0,0 UV-I 0 W/m 7,1 km/h (2 Bft)
09.01.2013 04:00 5,8 C 4,6 C 90 % 0 lf 1022,8 hPa 0,0 l/m 0,00 h 0,00 h 0,0 UV-I 0 W/m 8,7 km/h (2 Bft)
09.01.2013 05:00 5,7 C 4,6 C 90 % 0 lf 1022,2 hPa 0,0 l/m 0,00 h 0,00 h 0,0 UV-I 0 W/m 8,1 km/h (2 Bft)
09.01.2013 06:00 5,6 C 4,6 C 91 % 0 lf 1021,7 hPa 0,0 l/m 0,00 h 0,00 h 0,0 UV-I 0 W/m 9,3 km/h (2 Bft)
09.01.2013 07:00 5,6 C 4,6 C 91 % 0 lf 1021,4 hPa 0,0 l/m 0,00 h 0,00 h 0,0 UV-I 0 W/m 7,7 km/h (2 Bft)
09.01.2013 08:00 5,6 C 4,6 C 91 % 0 lf 1021,2 hPa 0,0 l/m 0,00 h 0,00 h 0,0 UV-I 0 W/m 7,4 km/h (2 Bft)
09.01.2013 09:00 5,5 C 4,6 C 92 % 0 lf 1021,0 hPa 0,0 l/m 0,00 h 0,00 h 0,0 UV-I 13 W/m 9,1 km/h (2 Bft)
09.01.2013 10:00 5,7 C 4,9 C 92 % 0 lf 1020,9 hPa 0,0 l/m 0,00 h 0,00 h 0,0 UV-I 27 W/m 10,4 km/h (2 Bft)
09.01.2013 11:00 5,7 C 5,0 C 92 % 0 lf 1020,6 hPa 0,0 l/m 0,00 h 0,00 h 0,0 UV-I 25 W/m 9,4 km/h (2 Bft)
09.01.2013 12:00 5,7 C 4,4 C 93 % 13 lf 1020,0 hPa 0,6 l/m 0,00 h 0,83 h 0,0 UV-I 17 W/m 8,1 km/h (2 Bft)
09.01.2013 13:00 5,3 C 4,0 C 96 % 13 lf 1019,1 hPa 1,4 l/m 0,00 h 1,00 h 0,0 UV-I 23 W/m 7,4 km/h (2 Bft)
09.01.2013 14:00 5,0 C 4,0 C 97 % 12 lf 1018,5 hPa 0,8 l/m 0,00 h 1,00 h 0,0 UV-I 17 W/m 8,5 km/h (2 Bft)
09.01.2013 15:00 4,9 C 4,0 C 98 % 14 lf 1018,3 hPa 0,2 l/m 0,00 h 1,00 h 0,0 UV-I 10 W/m 7,8 km/h (2 Bft)
09.01.2013 16:00 4,8 C 4,0 C 99 % 15 lf 1018,0 hPa 0,2 l/m 0,00 h 1,00 h 0,0 UV-I 5 W/m 6,3 km/h (2 Bft)
09.01.2013 17:00 4,9 C 4,0 C 99 % 15 lf 1017,7 hPa 0,0 l/m 0,00 h 1,00 h 0,0 UV-I 0 W/m 8,8 km/h (2 Bft)
09.01.2013 18:00 5,1 C 4,0 C 100 % 15 lf 1017,5 hPa 0,0 l/m 0,00 h 1,00 h 0,0 UV-I 0 W/m 7,4 km/h (2 Bft)
09.01.2013 19:00 5,3 C 4,4 C 100 % 15 lf 1017,4 hPa 0,0 l/m 0,00 h 1,00 h 0,0 UV-I 0 W/m 6,5 km/h (2 Bft)
09.01.2013 20:00 5,4 C 4,6 C 100 % 15 lf 1017,2 hPa 0,0 l/m 0,00 h 1,00 h 0,0 UV-I 0 W/m 6,4 km/h (2 Bft)
09.01.2013 21:00 5,7 C 4,6 C 100 % 15 lf 1017,2 hPa 0,0 l/m 0,00 h 1,00 h 0,0 UV-I 0 W/m 5,2 km/h (1 Bft)
09.01.2013 22:00 5,7 C 4,6 C 100 % 15 lf 1017,3 hPa 0,0 l/m 0,00 h 1,00 h 0,0 UV-I 0 W/m 1,7 km/h (1 Bft)
09.01.2013 23:00 5,3 C 3,8 C 100 % 15 lf 1017,0 hPa 0,0 l/m 0,00 h 1,00 h 0,0 UV-I 0 W/m 0,9 km/h (0 Bft)
10.01.2013 00:00 4,9 C 3,5 C 100 % 15 lf 1016,4 hPa 0,0 l/m 0,00 h 0,95 h 0,0 UV-I 0 W/m 1,2 km/h (1 Bft)
10.01.2013 01:00 4,3 C 3,2 C 100 % 15 lf 1016,4 hPa 0,0 l/m 0,00 h 1,00 h 0,0 UV-I 0 W/m 2,6 km/h (1 Bft)
10.01.2013 02:00 4,2 C 2,9 C 100 % 10 lf 1015,9 hPa 0,0 l/m 0,00 h 0,37 h 0,0 UV-I 0 W/m 1,6 km/h (1 Bft)
10.01.2013 03:00 4,2 C 2,9 C 99 % 6 lf 1015,5 hPa 0,0 l/m 0,00 h 0,00 h 0,0 UV-I 0 W/m 3,6 km/h (1 Bft)
10.01.2013 04:00 4,3 C 3,2 C 99 % 4 lf 1015,0 hPa 0,0 l/m 0,00 h 0,00 h 0,0 UV-I 0 W/m 2,4 km/h (1 Bft)
10.01.2013 05:00 4,4 C 3,4 C 98 % 1 lf 1014,4 hPa 0,0 l/m 0,00 h 0,00 h 0,0 UV-I 0 W/m 2,8 km/h (1 Bft)
10.01.2013 06:00 4,3 C 3,3 C 98 % 0 lf 1014,3 hPa 0,0 l/m 0,00 h 0,00 h 0,0 UV-I 0 W/m 4,4 km/h (1 Bft)
10.01.2013 07:00 4,3 C 3,3 C 98 % 0 lf 1014,1 hPa 0,0 l/m 0,00 h 0,00 h 0,0 UV-I 0 W/m 3,0 km/h (1 Bft)
10.01.2013 08:00 4,3 C 3,1 C 98 % 0 lf 1014,0 hPa 0,0 l/m 0,00 h 0,00 h 0,0 UV-I 6 W/m 4,9 km/h (1 Bft)
10.01.2013 09:00 4,1 C 3,2 C 98 % 0 lf 1013,8 hPa 0,0 l/m 0,00 h 0,00 h 0,0 UV-I 15 W/m 1,7 km/h (1 Bft)
10.01.2013 10:00 4,5 C 3,8 C 98 % 0 lf 1013,8 hPa 0,0 l/m 0,00 h 0,00 h 0,0 UV-I 33 W/m 4,3 km/h (1 Bft)
10.01.2013 11:00 4,8 C 4,3 C 96 % 0 lf 1013,5 hPa 0,0 l/m 0,00 h 0,00 h 0,0 UV-I 42 W/m 6,3 km/h (2 Bft)
10.01.2013 12:00 5,4 C 4,9 C 95 % 0 lf 1012,7 hPa 0,0 l/m 0,37 h 0,00 h 0,0 UV-I 161 W/m 9,6 km/h (2 Bft)
10.01.2013 13:00 6,4 C 5,5 C 91 % 0 lf 1012,0 hPa 0,0 l/m 0,33 h 0,00 h 0,0 UV-I 150 W/m 9,4 km/h (2 Bft)
10.01.2013 14:00 7,1 C 6,3 C 86 % 0 lf 1011,7 hPa 0,0 l/m 0,77 h 0,00 h 0,0 UV-I 195 W/m 8,5 km/h (2 Bft)
10.01.2013 15:00 6,8 C 5,5 C 85 % 0 lf 1011,6 hPa 0,0 l/m 0,03 h 0,00 h 0,0 UV-I 52 W/m 6,8 km/h (2 Bft)
10.01.2013 16:00 6,2 C 4,8 C 88 % 0 lf 1011,6 hPa 0,0 l/m 0,00 h 0,00 h 0,0 UV-I 9 W/m 4,3 km/h (1 Bft)
10.01.2013 17:00 5,8 C 4,6 C 89 % 0 lf 1011,3 hPa 0,0 l/m 0,00 h 0,00 h 0,0 UV-I 0 W/m 2,6 km/h (1 Bft)
10.01.2013 18:00 5,6 C 4,4 C 90 % 0 lf 1011,0 hPa 0,0 l/m 0,00 h 0,00 h 0,0 UV-I 0 W/m 3,5 km/h (1 Bft)
10.01.2013 19:00 5,4 C 4,0 C 92 % 0 lf 1010,8 hPa 0,0 l/m 0,00 h 0,00 h 0,0 UV-I 0 W/m 4,4 km/h (1 Bft)
10.01.2013 20:00 5,2 C 4,0 C 93 % 3 lf 1010,6 hPa 0,0 l/m 0,00 h 0,10 h 0,0 UV-I 0 W/m 6,7 km/h (2 Bft)
10.01.2013 21:00 5,2 C 3,8 C 94 % 7 lf 1010,7 hPa 0,0 l/m 0,00 h 0,47 h 0,0 UV-I 0 W/m 4,7 km/h (1 Bft)
10.01.2013 22:00 5,1 C 3,4 C 96 % 15 lf 1010,9 hPa 0,6 l/m 0,00 h 1,00 h 0,0 UV-I 0 W/m 5,1 km/h (1 Bft)
10.01.2013 23:00 3,9 C 2,4 C 96 % 15 lf 1011,6 hPa 0,4 l/m 0,00 h 1,00 h 0,0 UV-I 0 W/m 11,4 km/h (2 Bft)
11.01.2013 00:00 2,9 C 1,8 C 97 % 14 lf 1012,2 hPa 0,6 l/m 0,00 h 1,00 h 0,0 UV-I 0 W/m 3,1 km/h (1 Bft)
11.01.2013 01:00 2,5 C 1,5 C 98 % 15 lf 1012,5 hPa 0,0 l/m 0,00 h 1,00 h 0,0 UV-I 0 W/m 8,0 km/h (2 Bft)
11.01.2013 02:00 1,2 C 0,1 C 97 % 11 lf 1013,0 hPa 0,0 l/m 0,00 h 0,63 h 0,0 UV-I 0 W/m 6,4 km/h (2 Bft)
11.01.2013 03:00 0,4 C -0,9 C 95 % 4 lf 1013,5 hPa 0,0 l/m 0,00 h 0,00 h 0,0 UV-I 0 W/m 4,1 km/h (1 Bft)
11.01.2013 04:00 -0,9 C -2,6 C 93 % 4 lf 1014,1 hPa 0,0 l/m 0,00 h 0,00 h 0,0 UV-I 0 W/m 0,6 km/h (0 Bft)
11.01.2013 05:00 -1,4 C -3,2 C 93 % 8 lf 1014,5 hPa 0,0 l/m 0,00 h 0,00 h 0,0 UV-I 0 W/m 0,0 km/h (0 Bft)
11.01.2013 06:00 -2,0 C -3,1 C 93 % 2 lf 1015,1 hPa 0,0 l/m 0,00 h 0,10 h 0,0 UV-I 0 W/m 0,0 km/h (0 Bft)
11.01.2013 07:00 -2,4 C -3,6 C 94 % 0 lf 1016,0 hPa 0,0 l/m 0,00 h 0,00 h 0,0 UV-I 0 W/m 0,0 km/h (0 Bft)
11.01.2013 08:00 -2,8 C -3,8 C 95 % 0 lf 1016,7 hPa 0,0 l/m 0,10 h 0,00 h 0,0 UV-I 10 W/m 0,0 km/h (0 Bft)
11.01.2013 09:00 -2,6 C -3,2 C 96 % 0 lf 1017,2 hPa 0,0 l/m 0,00 h 0,00 h 0,0 UV-I 34 W/m 0,0 km/h (0 Bft)
11.01.2013 10:00 -1,9 C -2,4 C 97 % 11 lf 1017,6 hPa 0,0 l/m 0,53 h 0,60 h 0,0 UV-I 123 W/m 0,0 km/h (0 Bft)
11.01.2013 11:00 -0,5 C -1,6 C 97 % 0 lf 1017,8 hPa 0,2 l/m 1,00 h 0,00 h 0,0 UV-I 222 W/m 0,1 km/h (0 Bft)
11.01.2013 12:00 1,3 C -0,7 C 90 % 0 lf 1017,9 hPa 0,0 l/m 0,70 h 0,00 h 0,0 UV-I 208 W/m 0,1 km/h (0 Bft)
11.01.2013 13:00 1,6 C -0,0 C 81 % 0 lf 1017,8 hPa 0,0 l/m 0,00 h 0,00 h 0,0 UV-I 78 W/m 0,0 km/h (0 Bft)
11.01.2013 14:00 1,3 C 0,3 C 81 % 0 lf 1017,8 hPa 0,0 l/m 0,00 h 0,00 h 0,0 UV-I 56 W/m 1,0 km/h (0 Bft)
11.01.2013 15:00 0,9 C -0,8 C 83 % 0 lf 1017,8 hPa 0,0 l/m 0,00 h 0,00 h 0,0 UV-I 39 W/m 0,0 km/h (0 Bft)
11.01.2013 16:00 0,3 C -2,1 C 84 % 0 lf 1018,0 hPa 0,0 l/m 0,00 h 0,00 h 0,0 UV-I 17 W/m 0,0 km/h (0 Bft)
11.01.2013 17:00 -0,6 C -3,0 C 87 % 1 lf 1018,0 hPa 0,0 l/m 0,00 h 0,00 h 0,0 UV-I 0 W/m 0,0 km/h (0 Bft)
11.01.2013 18:00 -1,7 C -3,6 C 88 % 4 lf 1018,4 hPa 0,0 l/m 0,00 h 0,00 h 0,0 UV-I 0 W/m 0,0 km/h (0 Bft)
11.01.2013 19:00 -2,5 C -4,0 C 90 % 5 lf 1018,6 hPa 0,0 l/m 0,00 h 0,23 h 0,0 UV-I 0 W/m 0,0 km/h (0 Bft)
11.01.2013 20:00 -3,1 C -4,3 C 93 % 1 lf 1018,7 hPa 0,0 l/m 0,00 h 0,00 h 0,0 UV-I 0 W/m 0,0 km/h (0 Bft)
11.01.2013 21:00 -3,3 C -4,1 C 94 % 1 lf 1018,7 hPa 0,0 l/m 0,00 h 0,00 h 0,0 UV-I 0 W/m 0,0 km/h (0 Bft)
11.01.2013 22:00 -2,7 C -3,4 C 97 % 2 lf 1018,8 hPa 0,0 l/m 0,00 h 0,00 h 0,0 UV-I 0 W/m 0,0 km/h (0 Bft)
11.01.2013 23:00 -2,7 C -4,3 C 97 % 1 lf 1018,7 hPa 0,0 l/m 0,00 h 0,00 h 0,0 UV-I 0 W/m 0,0 km/h (0 Bft)
12.01.2013 00:00 -3,1 C -4,7 C 96 % 1 lf 1018,6 hPa 0,0 l/m 0,00 h 0,00 h 0,0 UV-I 0 W/m 0,0 km/h (0 Bft)
12.01.2013 01:00 -3,8 C -5,3 C 96 % 1 lf 1018,6 hPa 0,0 l/m 0,00 h 0,00 h 0,0 UV-I 0 W/m 0,0 km/h (0 Bft)
12.01.2013 02:00 -4,3 C -5,5 C 96 % 0 lf 1018,4 hPa 0,0 l/m 0,00 h 0,00 h 0,0 UV-I 0 W/m 0,0 km/h (0 Bft)
12.01.2013 03:00 -4,7 C -5,9 C 96 % 0 lf 1018,1 hPa 0,0 l/m 0,00 h 0,00 h 0,0 UV-I 0 W/m 0,0 km/h (0 Bft)
12.01.2013 04:00 -4,9 C -6,1 C 97 % 0 lf 1018,0 hPa 0,0 l/m 0,00 h 0,00 h 0,0 UV-I 0 W/m 0,0 km/h (0 Bft)
12.01.2013 05:00 -5,3 C -6,6 C 96 % 0 lf 1017,8 hPa 0,0 l/m 0,00 h 0,00 h 0,0 UV-I 0 W/m 0,0 km/h (0 Bft)
12.01.2013 06:00 -5,6 C -6,5 C 97 % 0 lf 1017,8 hPa 0,0 l/m 0,00 h 0,00 h 0,0 UV-I 0 W/m 0,0 km/h (0 Bft)
12.01.2013 07:00 -5,0 C -6,2 C 97 % 0 lf 1017,9 hPa 0,0 l/m 0,00 h 0,00 h 0,0 UV-I 0 W/m 0,0 km/h (0 Bft)
12.01.2013 08:00 -4,8 C -5,5 C 98 % 0 lf 1017,9 hPa 0,0 l/m 0,00 h 0,00 h 0,0 UV-I 7 W/m 4,0 km/h (1 Bft)
12.01.2013 09:00 -3,9 C -4,7 C 98 % 2 lf 1017,9 hPa 0,0 l/m 0,00 h 0,07 h 0,0 UV-I 19 W/m 4,1 km/h (1 Bft)
12.01.2013 10:00 -2,7 C -3,2 C 98 % 12 lf 1018,2 hPa 0,0 l/m 0,50 h 0,60 h 0,0 UV-I 136 W/m 5,2 km/h (1 Bft)
12.01.2013 11:00 -0,6 C -2,1 C 91 % 0 lf 1018,2 hPa 0,0 l/m 0,97 h 0,00 h 0,0 UV-I 233 W/m 11,4 km/h (2 Bft)
12.01.2013 12:00 0,9 C -1,1 C 80 % 0 lf 1017,7 hPa 0,0 l/m 0,88 h 0,00 h 0,0 UV-I 236 W/m 12,1 km/h (2 Bft)
12.01.2013 13:00 1,3 C -0,4 C 75 % 0 lf 1017,2 hPa 0,0 l/m 0,70 h 0,00 h 0,0 UV-I 168 W/m 11,8 km/h (2 Bft)
12.01.2013 14:00 1,5 C -0,3 C 72 % 0 lf 1017,0 hPa 0,0 l/m 0,73 h 0,00 h 0,0 UV-I 153 W/m 11,0 km/h (2 Bft)
12.01.2013 15:00 1,3 C -0,3 C 73 % 0 lf 1017,0 hPa 0,0 l/m 0,00 h 0,00 h 0,0 UV-I 46 W/m 9,2 km/h (2 Bft)
12.01.2013 16:00 0,8 C -1,5 C 75 % 0 lf 1016,9 hPa 0,0 l/m 0,00 h 0,00 h 0,0 UV-I 11 W/m 3,0 km/h (1 Bft)
12.01.2013 17:00 -0,2 C -2,7 C 76 % 0 lf 1017,0 hPa 0,0 l/m 0,00 h 0,00 h 0,0 UV-I 0 W/m 0,7 km/h (0 Bft)
12.01.2013 18:00 -0,9 C -3,3 C 80 % 0 lf 1017,0 hPa 0,0 l/m 0,00 h 0,00 h 0,0 UV-I 0 W/m 0,1 km/h (0 Bft)
12.01.2013 19:00 -1,8 C -4,2 C 82 % 0 lf 1017,1 hPa 0,0 l/m 0,00 h 0,00 h 0,0 UV-I 0 W/m 0,2 km/h (0 Bft)
12.01.2013 20:00 -1,8 C -3,2 C 82 % 0 lf 1017,2 hPa 0,0 l/m 0,00 h 0,00 h 0,0 UV-I 0 W/m 6,2 km/h (2 Bft)
12.01.2013 21:00 -1,6 C -3,2 C 79 % 0 lf 1017,1 hPa 0,0 l/m 0,00 h 0,00 h 0,0 UV-I 0 W/m 3,4 km/h (1 Bft)
12.01.2013 22:00 -2,0 C -3,8 C 80 % 0 lf 1017,1 hPa 0,0 l/m 0,00 h 0,00 h 0,0 UV-I 0 W/m 0,0 km/h (0 Bft)
12.01.2013 23:00 -2,5 C -4,0 C 80 % 0 lf 1017,1 hPa 0,0 l/m 0,00 h 0,00 h 0,0 UV-I 0 W/m 0,5 km/h (0 Bft)
13.01.2013 00:00 -2,7 C -4,6 C 80 % 0 lf 1017,2 hPa 0,0 l/m 0,00 h 0,00 h 0,0 UV-I 0 W/m 0,1 km/h (0 Bft)
13.01.2013 01:00 -3,7 C -5,3 C 85 % 0 lf 1016,9 hPa 0,0 l/m 0,00 h 0,00 h 0,0 UV-I 0 W/m 0,0 km/h (0 Bft)
13.01.2013 02:00 -4,1 C -5,4 C 88 % 0 lf 1016,9 hPa 0,0 l/m 0,00 h 0,00 h 0,0 UV-I 0 W/m 0,0 km/h (0 Bft)
13.01.2013 03:00 -4,4 C -5,8 C 89 % 0 lf 1016,9 hPa 0,0 l/m 0,00 h 0,00 h 0,0 UV-I 0 W/m 0,0 km/h (0 Bft)
13.01.2013 04:00 -4,7 C -6,0 C 90 % 0 lf 1016,6 hPa 0,0 l/m 0,00 h 0,00 h 0,0 UV-I 0 W/m 0,0 km/h (0 Bft)
13.01.2013 05:00 -4,9 C -6,0 C 91 % 0 lf 1016,5 hPa 0,0 l/m 0,00 h 0,00 h 0,0 UV-I 0 W/m 0,1 km/h (0 Bft)
13.01.2013 06:00 -5,1 C -6,0 C 92 % 0 lf 1016,6 hPa 0,0 l/m 0,00 h 0,00 h 0,0 UV-I 0 W/m 0,3 km/h (0 Bft)
13.01.2013 07:00 -5,1 C -6,0 C 92 % 0 lf 1017,0 hPa 0,0 l/m 0,00 h 0,00 h 0,0 UV-I 0 W/m 0,3 km/h (0 Bft)
13.01.2013 08:00 -5,1 C -6,2 C 91 % 0 lf 1017,3 hPa 0,0 l/m 0,00 h 0,00 h 0,0 UV-I 8 W/m 0,1 km/h (0 Bft)
13.01.2013 09:00 -5,0 C -5,6 C 92 % 0 lf 1017,6 hPa 0,0 l/m 0,00 h 0,00 h 0,0 UV-I 29 W/m 0,4 km/h (0 Bft)
13.01.2013 10:00 -4,0 C -4,4 C 91 % 0 lf 1017,9 hPa 0,0 l/m 0,70 h 0,00 h 0,0 UV-I 152 W/m 1,0 km/h (0 Bft)
13.01.2013 11:00 -2,2 C -3,2 C 85 % 0 lf 1018,0 hPa 0,0 l/m 1,00 h 0,00 h 0,0 UV-I 238 W/m 3,3 km/h (1 Bft)
13.01.2013 12:00 -0,6 C -2,1 C 78 % 0 lf 1017,4 hPa 0,0 l/m 0,93 h 0,00 h 0,0 UV-I 233 W/m 3,8 km/h (1 Bft)
13.01.2013 13:00 0,2 C -1,2 C 74 % 0 lf 1016,8 hPa 0,0 l/m 0,73 h 0,00 h 0,0 UV-I 176 W/m 5,8 km/h (2 Bft)
13.01.2013 14:00 0,8 C -1,0 C 71 % 0 lf 1016,7 hPa 0,0 l/m 0,93 h 0,00 h 0,0 UV-I 204 W/m 7,9 km/h (2 Bft)
13.01.2013 15:00 0,4 C -0,9 C 74 % 0 lf 1016,7 hPa 0,0 l/m 0,00 h 0,00 h 0,0 UV-I 63 W/m 7,9 km/h (2 Bft)
13.01.2013 16:00 -0,3 C -2,0 C 78 % 0 lf 1016,8 hPa 0,0 l/m 0,00 h 0,00 h 0,0 UV-I 18 W/m 3,5 km/h (1 Bft)
13.01.2013 17:00 -0,7 C -2,1 C 83 % 0 lf 1017,0 hPa 0,0 l/m 0,00 h 0,00 h 0,0 UV-I 0 W/m 3,1 km/h (1 Bft)
13.01.2013 18:00 -1,0 C -2,1 C 87 % 0 lf 1017,1 hPa 0,0 l/m 0,00 h 0,00 h 0,0 UV-I 0 W/m 3,6 km/h (1 Bft)
13.01.2013 19:00 -1,2 C -2,5 C 88 % 0 lf 1017,0 hPa 0,0 l/m 0,00 h 0,00 h 0,0 UV-I 0 W/m 3,2 km/h (1 Bft)
13.01.2013 20:00 -1,3 C -2,7 C 88 % 0 lf 1016,8 hPa 0,0 l/m 0,00 h 0,00 h 0,0 UV-I 0 W/m 1,2 km/h (1 Bft)
13.01.2013 21:00 -1,4 C -2,7 C 90 % 0 lf 1016,8 hPa 0,0 l/m 0,00 h 0,00 h 0,0 UV-I 0 W/m 1,4 km/h (1 Bft)
13.01.2013 22:00 -1,4 C -2,7 C 91 % 0 lf 1016,6 hPa 0,0 l/m 0,00 h 0,00 h 0,0 UV-I 0 W/m 1,0 km/h (0 Bft)
13.01.2013 23:00 -1,6 C -2,7 C 92 % 0 lf 1016,3 hPa 0,0 l/m 0,00 h 0,00 h 0,0 UV-I 0 W/m 0,4 km/h (0 Bft)
Min-Datum _ 12.01.13 12.01.13 12.01.13 07.01.13 10.01.13 - - - - - 07.01.13
_ Min-Zeit 05:58 04:44 14:28 00:00 20:10 - - - - - 00:08
Minimum _ -5,7 C -6,6 C 70 % 0 lf 1010,5 hPa - - - - - 0,0 km/h (0 Bft)
Max-Datum _ 07.01.13 07.01.13 09.01.13 08.01.13 07.01.13 09.01.13 10.01.13 08.01.13 07.01.13 10.01.13 09.01.13
_ Max-Zeit 12:34 11:54 18:26 05:06 00:02 13:02 12:24 04:52 00:00 12:26 04:12
Maximum _ 8,8 C 8,4 C 100 % 15 lf 1030,0 hPa 1,4 l/m 0,03 h 0,03 h 0,0 UV-I 313 W/m 28,3 km/h
S (4 Bft)
Durchschnitt _ 2,8 C 1,6 C 92 % 3 lf 1019,6 hPa #5,2 l/m #11:55 h #26:27 h 0,0 UV-I 69 W/m 3,7 km/h (1 Bft)
© 2013 W. Hausmann